Weather History for Victoria, BC

Change the Weather History Date:

Wednesday, January 22, 2014

  Actual Average Record
Temperature  
Mean Temperature 41 °F -  
Max Temperature 45 °F 46 °F 50 °F (2003)
Min Temperature 37 °F 34 °F 24 °F (2008)
Degree Days  
Heating Degree Days 24    
Moisture  
Dew Point 39 °F    
Average Humidity 91    
Maximum Humidity 100    
Minimum Humidity 76    
Precipitation  
Precipitation 0.00 in 0.14 in - ()
Sea Level Pressure  
Sea Level Pressure 30.43 in    
Wind  
Wind Speed 4 mph ()    
Max Wind Speed 10 mph    
Max Gust Speed -    
Visibility 11.7 miles    
Events      
Averages and records for this station are not official NWS values.
T = Trace of Precipitation, MM = Missing Value Source: Averaged Metar Reports

Daily Weather History Graph

Daily Weather History Graph

Search for Another Location

Airport:

Trip Planner

Search our weather history database for the weather conditions in past years. The results will help you decide how hot, cold, wet, or windy it might be!

Date:

Astronomy

Jan. 22, 2014 Rise Set
Actual Time 7:54 AM PST 4:56 PM PST
Civil Twilight 7:20 AM PST 5:31 PM PST
Nautical Twilight 6:41 AM PST 6:09 PM PST
Astronomical Twilight 6:04 AM PST 6:47 PM PST
Moon No Moon Rise 10:24 AM PST (1/22)
Length of Visible Light 10h 11m
Length of Day
9h 01m
Waning Gibbous, 64% of the Moon is Illuminated
Jan 22
Waning Gibbous
Jan 23
Last Quarter
Jan 30
New
Feb 6
First Quarter
Feb 14
Full

Hourly Weather History & Observations

Time (PST) Temp. Windchill Dew Point Humidity Pressure Visibility Wind Dir Wind Speed Gust Speed Precip Events Conditions
12:00 AM 39.2 °F - 39.2 °F 100% 30.33 in 30.0 mi Calm Calm - N/A   Overcast
1:00 AM 41.0 °F 38.0 °F 41.0 °F 100% 30.33 in 20.0 mi NNW 4.6 mph - N/A   Overcast
2:00 AM 41.0 °F - 41.0 °F 100% 30.35 in 20.0 mi Calm Calm - N/A   Mostly Cloudy
3:00 AM 39.2 °F - 39.2 °F 100% 30.37 in 15.0 mi NW 2.3 mph - N/A   Overcast
4:00 AM 41 °F - 40 °F 97% 30.38 in 15 mi WSW 3.5 mph - -   Overcast
4:00 AM 41.0 °F 39.0 °F 41.0 °F 100% 30.38 in 15.0 mi WSW 3.5 mph - N/A   Overcast
5:00 AM 41.0 °F 38.0 °F 41.0 °F 100% 30.40 in 10.0 mi West 4.6 mph - N/A   Overcast
6:00 AM 41.0 °F 39.0 °F 39.2 °F 93% 30.40 in 10.0 mi West 3.5 mph - N/A   Overcast
7:00 AM 41.0 °F 36.4 °F 39.2 °F 93% 30.40 in 12.0 mi NW 6.9 mph - N/A   Overcast
8:00 AM 41.0 °F 37.1 °F 39.2 °F 93% 30.41 in 5.0 mi West 5.8 mph - N/A   Overcast
9:00 AM 41.0 °F 36.4 °F 39.2 °F 93% 30.43 in 6.0 mi WSW 6.9 mph - N/A   Mostly Cloudy
10:00 AM 43 °F - 40 °F 85% 30.45 in 7 mi WNW 9.2 mph - -   Mostly Cloudy
10:00 AM 42.8 °F 38.0 °F 39.2 °F 87% 30.45 in 8.0 mi WNW 8.1 mph - N/A   Mostly Cloudy
11:00 AM 42.8 °F 37.0 °F 39.2 °F 87% 30.47 in 8.0 mi West 10.4 mph - N/A   Mostly Cloudy
12:00 PM 44.6 °F 41.4 °F 39.2 °F 81% 30.46 in 10.0 mi WNW 5.8 mph - N/A   Mostly Cloudy
1:00 PM 44.6 °F 39.7 °F 39.2 °F 81% 30.46 in 12.0 mi WNW 9.2 mph - N/A   Mostly Cloudy
2:00 PM 44.6 °F 43.1 °F 39.2 °F 81% 30.44 in 12.0 mi WNW 3.5 mph - N/A   Mostly Cloudy
3:00 PM 44.6 °F 43.1 °F 39.2 °F 81% 30.45 in 12.0 mi North 3.5 mph - N/A   Scattered Clouds
4:00 PM 44 °F - 39 °F 76% 30.45 in 15 mi NW 3.5 mph - -   Scattered Clouds
4:00 PM 44.6 °F 41.4 °F 39.2 °F 81% 30.45 in 15.0 mi WNW 5.8 mph - N/A   Partly Cloudy
5:00 PM 41.0 °F 37.1 °F 37.4 °F 87% 30.44 in 20.0 mi NW 5.8 mph - N/A   Partly Cloudy
6:00 PM 39.2 °F 35.9 °F 37.4 °F 93% 30.45 in 20.0 mi NW 4.6 mph - N/A   Partly Cloudy
7:00 PM 39.2 °F 35.0 °F 37.4 °F 93% 30.45 in 12.0 mi West 5.8 mph - N/A   Partly Cloudy
8:00 PM 39.2 °F 35.0 °F 37.4 °F 93% 30.45 in 12.0 mi West 5.8 mph - N/A   Partly Cloudy
9:00 PM 37.4 °F 33.8 °F 37.4 °F 100% 30.47 in 6.0 mi West 4.6 mph - N/A   Overcast
10:00 PM 40 °F - 38 °F 92% 30.47 in 6 mi West 6.9 mph - -   Overcast
10:00 PM 41.0 °F 36.4 °F 39.2 °F 93% 30.47 in 6.0 mi West 6.9 mph - N/A   Overcast
11:00 PM 41.0 °F 35.8 °F 39.2 °F 93% 30.48 in 6.0 mi West 8.1 mph - N/A   Overcast